Location: Białystok
(53.1343°N, 23.1544°E)
Time: 04:47:52
(UTC+01:00)

ISS - Visible Passes

Search period start: 24 November 2017 00:00
Search period end: 04 December 2017 00:00
Orbit: 402 x 407 km, 51.6° (Epoch: 24 November)

Date Brightness Start Highest point End Pass type
(mag) Time Alt. Az. Time Alt. Az. Time Alt. Az.
29 Nov -1.6 17:26:16 10° S 17:27:45 16° SSE 17:27:45 16° SSE visible
30 Nov -1.4 16:35:19 10° SSE 16:36:21 11° SE 16:37:24 10° ESE visible
30 Nov -1.4 18:09:05 10° SW 18:10:15 19° SW 18:10:15 19° SW visible
01 Dec -2.5 17:17:03 10° SSW 17:19:53 27° SSE 17:20:01 27° SSE visible
02 Dec -1.9 16:25:15 10° SSW 16:27:40 19° SSE 16:29:44 12° ESE visible
02 Dec -2.1 18:00:28 10° WSW 18:02:23 30° SW 18:02:23 30° SW visible
03 Dec -3.1 17:08:14 10° SW 17:11:21 41° SSE 17:12:04 35° SE visible
03 Dec -0.4 18:44:22 10° W 18:44:42 12° W 18:44:42 12° W visible
